N100MB KCOS-KAPA

Flight info

Callsign N100MB
Flight time 0h 25m
Altitude VFR
Route PATTERNWORK
Aircraft C172/L-SFG/C

Departure

Time 2026-04-21 02:02
Airport City of Colorado Springs Municipal Airport (KCOS)

Arrival

Time 2026-04-21 02:27
Airport Centennial Airport (KAPA)
Time Latitude Longitude Altitude Speed Heading
2026-04-21 02:01 38.81801 -104.68982 7254 ft 96 kts 124°
2026-04-21 02:02 38.81926 -104.68182 7282 ft 103 kts 48°
2026-04-21 02:02 38.82539 -104.67723 7340 ft 101 kts 27°
2026-04-21 02:02 38.83232 -104.67462 7328 ft 105 kts 14°
2026-04-21 02:02 38.83913 -104.67271 7470 ft 100 kts 16°
2026-04-21 02:03 38.84603 -104.67092 7583 ft 102 kts 16°
2026-04-21 02:03 38.85259 -104.67341 7678 ft 103 kts 312°
2026-04-21 02:03 38.85910 -104.67630 7794 ft 100 kts 355°
2026-04-21 02:03 38.86603 -104.67826 7879 ft 102 kts 352°
2026-04-21 02:04 38.87301 -104.67994 8008 ft 102 kts 349°
2026-04-21 02:04 38.87980 -104.68159 8141 ft 96 kts 350°
2026-04-21 02:04 38.88638 -104.68318 8251 ft 96 kts 352°
2026-04-21 02:04 38.89290 -104.68475 8345 ft 96 kts 352°
2026-04-21 02:05 38.89951 -104.68635 8428 ft 97 kts 352°
2026-04-21 02:05 38.90615 -104.68794 8563 ft 98 kts 353°
2026-04-21 02:05 38.91319 -104.68960 8576 ft 110 kts 354°
2026-04-21 02:05 38.92094 -104.69146 8584 ft 117 kts 352°
2026-04-21 02:06 38.92915 -104.69341 8575 ft 123 kts 352°
2026-04-21 02:06 38.93721 -104.69539 8727 ft 110 kts 353°
2026-04-21 02:06 38.94417 -104.69713 8928 ft 98 kts 352°
2026-04-21 02:06 38.95086 -104.69873 8974 ft 98 kts 353°
2026-04-21 02:07 38.95756 -104.70034 9089 ft 99 kts 354°
2026-04-21 02:07 38.96433 -104.70196 9188 ft 99 kts 353°
2026-04-21 02:07 38.97112 -104.70359 9293 ft 100 kts 352°
2026-04-21 02:07 38.97792 -104.70522 9380 ft 100 kts 352°
2026-04-21 02:08 38.98471 -104.70686 9485 ft 98 kts 353°
2026-04-21 02:08 38.99138 -104.70847 9555 ft 99 kts 352°
2026-04-21 02:08 38.99819 -104.71011 9609 ft 101 kts 353°
2026-04-21 02:08 39.00507 -104.71176 9701 ft 100 kts 352°
2026-04-21 02:09 39.01190 -104.71342 9808 ft 100 kts 353°
2026-04-21 02:09 39.01868 -104.71507 9915 ft 100 kts 353°
2026-04-21 02:09 39.02555 -104.71671 10020 ft 100 kts 352°
2026-04-21 02:09 39.03240 -104.71837 10091 ft 101 kts 353°
2026-04-21 02:10 39.03926 -104.72003 10173 ft 101 kts 352°
2026-04-21 02:10 39.04616 -104.72169 10236 ft 100 kts 353°
2026-04-21 02:10 39.05301 -104.72335 10302 ft 101 kts 352°
2026-04-21 02:10 39.05992 -104.72501 10368 ft 101 kts 352°
2026-04-21 02:11 39.06674 -104.72668 10425 ft 101 kts 352°
2026-04-21 02:11 39.07360 -104.72832 10497 ft 102 kts 352°
2026-04-21 02:11 39.08085 -104.73003 10507 ft 109 kts 352°
2026-04-21 02:11 39.08853 -104.73188 10502 ft 116 kts 352°
2026-04-21 02:12 39.09661 -104.73383 10504 ft 121 kts 355°
2026-04-21 02:12 39.10495 -104.73586 10497 ft 123 kts 355°
2026-04-21 02:12 39.11344 -104.73790 10494 ft 125 kts 355°
2026-04-21 02:12 39.12201 -104.73998 10490 ft 125 kts 355°
2026-04-21 02:13 39.12771 -104.74135 10480 ft 127 kts 355°
2026-04-21 02:13 39.13637 -104.74346 10477 ft 126 kts 355°
2026-04-21 02:13 39.14774 -104.74622 10468 ft 125 kts 354°
2026-04-21 02:13 39.15628 -104.74829 10460 ft 123 kts 354°
2026-04-21 02:14 39.16185 -104.74964 10458 ft 124 kts 355°
2026-04-21 02:14 39.17032 -104.75169 10453 ft 124 kts 356°
2026-04-21 02:14 39.17881 -104.75375 10455 ft 125 kts 353°
2026-04-21 02:14 39.18733 -104.75581 10449 ft 124 kts 354°
2026-04-21 02:15 39.19581 -104.75788 10443 ft 124 kts 355°
2026-04-21 02:15 39.20471 -104.75999 10223 ft 139 kts 354°
2026-04-21 02:15 39.21796 -104.76316 9853 ft 147 kts 354°
2026-04-21 02:15 39.22799 -104.76562 9614 ft 146 kts 355°
2026-04-21 02:16 39.23475 -104.76726 9452 ft 146 kts 354°
2026-04-21 02:16 39.24460 -104.76969 9244 ft 143 kts 354°
2026-04-21 02:16 39.25445 -104.77207 9010 ft 144 kts 355°
2026-04-21 02:16 39.26407 -104.77463 8789 ft 144 kts 351°
2026-04-21 02:17 39.27378 -104.77828 8560 ft 144 kts 350°
2026-04-21 02:17 39.28338 -104.78188 8405 ft 141 kts 349°
2026-04-21 02:17 39.29242 -104.78554 8391 ft 133 kts 347°
2026-04-21 02:17 39.30108 -104.78902 8378 ft 127 kts 349°
2026-04-21 02:18 39.30944 -104.79237 8360 ft 125 kts 348°
2026-04-21 02:18 39.31740 -104.79679 8368 ft 124 kts 337°
2026-04-21 02:18 39.32513 -104.80145 8369 ft 123 kts 338°
2026-04-21 02:18 39.33284 -104.80631 8360 ft 122 kts 339°
2026-04-21 02:19 39.34027 -104.81128 8362 ft 122 kts 339°
2026-04-21 02:19 39.34786 -104.81618 8363 ft 121 kts 338°
2026-04-21 02:19 39.35537 -104.82105 8365 ft 120 kts 338°
2026-04-21 02:19 39.36272 -104.82588 8365 ft 116 kts 336°
2026-04-21 02:20 39.36987 -104.83057 8363 ft 116 kts 338°
2026-04-21 02:20 39.37707 -104.83523 8446 ft 115 kts 345°
2026-04-21 02:20 39.38479 -104.83913 8305 ft 127 kts 342°
2026-04-21 02:20 39.39391 -104.84171 7981 ft 139 kts
2026-04-21 02:21 39.40327 -104.84271 7963 ft 133 kts
2026-04-21 02:21 39.41231 -104.84334 7964 ft 128 kts
2026-04-21 02:21 39.42114 -104.84387 7971 ft 127 kts 359°
2026-04-21 02:21 39.42942 -104.84431 7958 ft 114 kts
2026-04-21 02:22 39.43690 -104.84467 7962 ft 103 kts
2026-04-21 02:22 39.44377 -104.84500 7970 ft 95 kts
2026-04-21 02:22 39.45022 -104.84534 7985 ft 95 kts
2026-04-21 02:22 39.45710 -104.84556 7903 ft 103 kts
2026-04-21 02:23 39.46440 -104.84600 7749 ft 107 kts
2026-04-21 02:23 39.47184 -104.84663 7602 ft 106 kts
2026-04-21 02:23 39.47901 -104.84660 7449 ft 100 kts
2026-04-21 02:23 39.48579 -104.84693 7333 ft 94 kts
2026-04-21 02:24 39.49224 -104.84730 7259 ft 92 kts
2026-04-21 02:24 39.49903 -104.84778 7111 ft 100 kts
2026-04-21 02:24 39.50578 -104.84815 7013 ft 98 kts
2026-04-21 02:24 39.51276 -104.84800 6919 ft 102 kts
2026-04-21 02:25 39.51995 -104.84853 6767 ft 105 kts
2026-04-21 02:25 39.52737 -104.84888 6564 ft 105 kts
2026-04-21 02:25 39.53451 -104.84919 6413 ft 102 kts
2026-04-21 02:25 39.54127 -104.84947 6255 ft 93 kts
2026-04-21 02:26 39.54767 -104.84984 6108 ft 91 kts
2026-04-21 02:26 39.55387 -104.85008 5950 ft 89 kts
2026-04-21 02:26 39.55998 -104.85038 5836 ft 81 kts
2026-04-21 02:26 39.56476 -104.85058 5831 ft 59 kts 359°
2026-04-21 02:27 39.56837 -104.85072 5838 ft 50 kts 359°
2026-04-21 02:27 39.57174 -104.85088 5848 ft 45 kts
2026-04-21 02:27 39.57320 -104.85005 5850 ft 10 kts 27°
2026-04-21 02:27 39.57352 -104.84985 5851 ft 0 kts 28°
2026-04-21 02:28 39.57356 -104.84982 5851 ft 5 kts 29°
2026-04-21 02:28 39.57402 -104.84960 5850 ft 7 kts 358°
2026-04-21 02:28 39.57432 -104.84936 5849 ft 5 kts 82°
2026-04-21 02:29 39.57436 -104.84898 5849 ft 4 kts 62°
2026-04-21 02:29 39.57467 -104.84888 5847 ft 5 kts 17°
2026-04-21 02:29 39.57473 -104.84858 5846 ft 0 kts 85°